| time (UTC) | temp C | wind direction | speed KPH | gust KPH | rain 1hr cm | rain 24hr cm | rain mn cm | humidity % | barometer mb |
| 20260506002818 | 15 | 0 | 4.8 | 12.9 | 0.20 | 3.84 | 0.00 | 90 | 1012.6 |
| 20260506002327 | 15 | 0 | 1.6 | 9.7 | 0.15 | 3.76 | 0.00 | 90 | 1012.6 |
| 20260506001818 | 15 | 0 | 4.8 | 6.4 | 0.05 | 3.66 | 0.00 | 91 | 1012.6 |
| 20260506001321 | 15 | 0 | 3.2 | 6.4 | 0.00 | 3.61 | 0.00 | 91 | 1012.5 |
| 20260506000818 | 15 | 0 | 0.0 | 6.4 | 0.00 | 3.61 | 0.00 | 91 | 1012.6 |
| 20260506000318 | 15 | 0 | 3.2 | 6.4 | 0.00 | 3.61 | 0.00 | 91 | 1012.7 |
| 20260505235818 | 15 | 0 | 1.6 | 4.8 | 0.00 | 3.61 | 0.00 | 91 | 1012.9 |
| 20260505235324 | 15 | 0 | 3.2 | 6.4 | 0.00 | 3.61 | 0.00 | 90 | 1012.9 |
| 20260505234818 | 15 | 0 | 0.0 | 1.6 | 0.00 | 3.61 | 0.00 | 90 | 1012.9 |
| 20260505234321 | 15 | 0 | 0.0 | 12.9 | 0.00 | 3.61 | 0.00 | 90 | 1013.2 |
| 20260505233824 | 15 | 0 | 0.0 | 4.8 | 0.00 | 3.61 | 0.00 | 90 | 1013.4 |
| 20260505233318 | 15 | 0 | 1.6 | 6.4 | 0.00 | 3.61 | 0.00 | 89 | 1013.4 |
| 20260505232818 | 15 | 0 | 4.8 | 9.7 | 0.00 | 3.61 | 0.00 | 90 | 1013.5 |
| 20260505232318 | 15 | 0 | 0.0 | 0.0 | 0.00 | 3.61 | 0.00 | 89 | 1013.5 |
| 20260505231818 | 15 | 0 | 0.0 | 0.0 | 0.00 | 3.61 | 0.00 | 89 | 1013.5 |
| 20260505231321 | 15 | 0 | 0.0 | 0.0 | 0.00 | 3.61 | 0.00 | 89 | 1013.7 |
| 20260505230818 | 15 | 0 | 0.0 | 0.0 | 0.00 | 3.61 | 0.00 | 89 | 1013.8 |
| 20260505230318 | 15 | 0 | 0.0 | 0.0 | 0.00 | 3.61 | 0.00 | 89 | 1013.9 |
| 20260505225818 | 15 | 0 | 0.0 | 0.0 | 0.00 | 3.61 | 0.00 | 89 | 1013.8 |
| 20260505225318 | 15 | 0 | 0.0 | 0.0 | 0.00 | 3.61 | 0.00 | 89 | 1013.8 |
| 20260505224821 | 15 | 0 | 0.0 | 0.0 | 0.00 | 3.61 | 0.00 | 89 | 1013.9 |
| 20260505224321 | 15 | 0 | 0.0 | 6.4 | 0.00 | 3.61 | 0.00 | 89 | 1013.9 |
| 20260505223818 | 15 | 0 | 0.0 | 4.8 | 0.00 | 3.61 | 0.00 | 89 | 1014.1 |
| 20260505223321 | 15 | 0 | 0.0 | 4.8 | 0.00 | 3.61 | 0.00 | 89 | 1014.2 |
| 20260505222827 | 15 | 0 | 0.0 | 4.8 | 0.00 | 3.61 | 0.00 | 89 | 1014.1 |
| 20260505222318 | 15 | 0 | 1.6 | 6.4 | 0.00 | 3.61 | 0.00 | 89 | 1014.2 |
| 20260505221818 | 15 | 0 | 1.6 | 4.8 | 0.00 | 3.61 | 0.00 | 89 | 1014.3 |
| 20260505221321 | 15 | 0 | 0.0 | 1.6 | 0.00 | 3.61 | 0.00 | 89 | 1014.2 |
| 20260505220824 | 15 | 0 | 0.0 | 6.4 | 0.00 | 3.61 | 0.00 | 89 | 1014.1 |
| 20260505220321 | 15 | 0 | 0.0 | 6.4 | 0.00 | 3.61 | 0.00 | 89 | 1014.1 |
| 20260505215821 | 15 | 0 | 0.0 | 4.8 | 0.00 | 3.61 | 0.00 | 89 | 1014.2 |
| 20260505215318 | 15 | 0 | 1.6 | 3.2 | 0.00 | 3.61 | 0.00 | 89 | 1014.3 |
| 20260505214824 | 15 | 0 | 0.0 | 4.8 | 0.00 | 3.61 | 0.00 | 89 | 1014.3 |
| 20260505214318 | 15 | 0 | 3.2 | 3.2 | 0.00 | 3.61 | 0.00 | 89 | 1014.5 |
| 20260505213818 | 15 | 0 | 0.0 | 4.8 | 0.00 | 3.61 | 0.00 | 89 | 1014.4 |
| 20260505213318 | 15 | 0 | 1.6 | 8.0 | 0.00 | 3.61 | 0.00 | 89 | 1014.5 |
| 20260505212818 | 15 | 0 | 3.2 | 6.4 | 0.00 | 3.61 | 0.00 | 89 | 1014.5 |
| 20260505212321 | 15 | 0 | 3.2 | 4.8 | 0.00 | 3.61 | 0.00 | 89 | 1014.4 |
| 20260505211818 | 15 | 0 | 3.2 | 4.8 | 0.00 | 3.61 | 0.00 | 89 | 1014.4 |
| 20260505211318 | 15 | 0 | 1.6 | 4.8 | 0.00 | 3.61 | 0.00 | 89 | 1014.4 |
| 20260505210824 | 15 | 0 | 1.6 | 6.4 | 0.00 | 3.61 | 0.00 | 89 | 1014.5 |
| 20260505210318 | 15 | 0 | 3.2 | 6.4 | 0.00 | 3.61 | 0.00 | 89 | 1014.6 |
| 20260505205821 | 15 | 0 | 0.0 | 8.0 | 0.00 | 3.61 | 0.00 | 89 | 1014.6 |
| 20260505205321 | 15 | 0 | 1.6 | 1.6 | 0.00 | 3.61 | 0.00 | 89 | 1014.5 |
| 20260505204818 | 15 | 0 | 0.0 | 4.8 | 0.00 | 3.61 | 0.00 | 89 | 1014.8 |
| 20260505204321 | 15 | 0 | 0.0 | 6.4 | 0.00 | 3.61 | 0.00 | 89 | 1014.8 |
| 20260505203818 | 15 | 0 | 3.2 | 8.0 | 0.00 | 3.61 | 0.00 | 89 | 1014.9 |
| 20260505203318 | 15 | 0 | 3.2 | 6.4 | 0.00 | 3.61 | 0.00 | 89 | 1014.9 |
| 20260505202824 | 15 | 0 | 4.8 | 8.0 | 0.00 | 3.61 | 0.00 | 89 | 1014.8 |
| 20260505202321 | 15 | 0 | 1.6 | 6.4 | 0.00 | 3.61 | 0.00 | 89 | 1014.8 |
| 20260505201818 | 15 | 0 | 1.6 | 8.0 | 0.00 | 3.61 | 0.00 | 89 | 1014.8 |
| 20260505201327 | 15 | 0 | 3.2 | 6.4 | 0.00 | 3.61 | 0.00 | 89 | 1014.8 |
| 20260505200818 | 15 | 0 | 4.8 | 6.4 | 0.00 | 3.61 | 0.00 | 89 | 1014.8 |
| 20260505200318 | 15 | 0 | 1.6 | 4.8 | 0.00 | 3.61 | 0.00 | 89 | 1014.8 |
| 20260505195818 | 15 | 0 | 1.6 | 4.8 | 0.00 | 3.61 | 0.00 | 89 | 1014.8 |
| 20260505195318 | 15 | 0 | 1.6 | 4.8 | 0.00 | 3.61 | 0.00 | 89 | 1014.9 |
| 20260505194818 | 15 | 0 | 1.6 | 4.8 | 0.00 | 3.61 | 0.00 | 89 | 1014.9 |
| 20260505194321 | 15 | 0 | 1.6 | 8.0 | 0.00 | 3.61 | 0.00 | 89 | 1014.9 |
| 20260505193818 | 15 | 0 | 4.8 | 4.8 | 0.00 | 3.61 | 0.00 | 89 | 1014.8 |
| 20260505193324 | 15 | 0 | 3.2 | 4.8 | 0.00 | 3.61 | 0.00 | 89 | 1014.6 |
| 20260505192818 | 15 | 0 | 0.0 | 8.0 | 0.00 | 3.61 | 0.00 | 89 | 1014.7 |
| 20260505192318 | 15 | 0 | 6.4 | 9.7 | 0.00 | 3.61 | 0.00 | 89 | 1014.7 |
| 20260505191818 | 15 | 0 | 1.6 | 8.0 | 0.00 | 3.61 | 0.00 | 89 | 1014.7 |
| 20260505191327 | 15 | 0 | 1.6 | 8.0 | 0.00 | 3.61 | 0.00 | 89 | 1014.7 |
| 20260505190818 | 15 | 0 | 1.6 | 6.4 | 0.00 | 3.61 | 0.00 | 89 | 1014.6 |
| 20260505190318 | 15 | 0 | 1.6 | 8.0 | 0.00 | 3.61 | 0.00 | 89 | 1014.4 |
| 20260505185818 | 15 | 0 | 1.6 | 6.4 | 0.00 | 3.61 | 0.00 | 89 | 1014.5 |
| 20260505185321 | 15 | 0 | 4.8 | 9.7 | 0.00 | 3.61 | 0.00 | 89 | 1014.4 |
| 20260505184818 | 15 | 0 | 3.2 | 8.0 | 0.00 | 3.61 | 0.00 | 89 | 1014.4 |
| 20260505184318 | 15 | 0 | 1.6 | 9.7 | 0.00 | 3.61 | 0.00 | 88 | 1014.5 |
| 20260505183821 | 15 | 0 | 3.2 | 9.7 | 0.00 | 3.61 | 0.00 | 88 | 1014.4 |
| 20260505183321 | 15 | 0 | 4.8 | 8.0 | 0.00 | 3.61 | 0.00 | 88 | 1014.5 |
| 20260505182821 | 15 | 0 | 6.4 | 9.7 | 0.00 | 3.61 | 0.00 | 88 | 1014.6 |
| 20260505182324 | 15 | 0 | 6.4 | 12.9 | 0.00 | 3.61 | 0.00 | 88 | 1014.6 |
| 20260505181824 | 15 | 0 | 3.2 | 8.0 | 0.00 | 3.61 | 0.00 | 88 | 1014.5 |
| 20260505181321 | 15 | 0 | 3.2 | 8.0 | 0.00 | 3.61 | 0.00 | 88 | 1014.5 |
| 20260505180821 | 15 | 0 | 1.6 | 8.0 | 0.00 | 3.61 | 0.00 | 87 | 1014.5 |
| 20260505180318 | 15 | 0 | 1.6 | 8.0 | 0.00 | 3.61 | 0.00 | 87 | 1014.4 |
| 20260505175818 | 15 | 0 | 6.4 | 12.9 | 0.00 | 3.61 | 0.00 | 87 | 1014.4 |
| 20260505175318 | 15 | 0 | 0.0 | 8.0 | 0.00 | 3.61 | 0.00 | 87 | 1014.5 |
| 20260505174818 | 15 | 0 | 4.8 | 12.9 | 0.00 | 3.61 | 0.00 | 86 | 1014.5 |
| 20260505174327 | 16 | 0 | 3.2 | 6.4 | 0.00 | 3.61 | 0.00 | 86 | 1014.4 |
| 20260505173824 | 16 | 0 | 3.2 | 8.0 | 0.00 | 3.61 | 0.00 | 86 | 1014.4 |
| 20260505173318 | 16 | 0 | 3.2 | 6.4 | 0.00 | 3.61 | 0.00 | 87 | 1014.4 |
| 20260505172824 | 16 | 0 | 0.0 | 8.0 | 0.00 | 3.61 | 0.00 | 87 | 1014.3 |
| 20260505172327 | 16 | 0 | 6.4 | 8.0 | 0.00 | 3.61 | 0.00 | 87 | 1014.3 |
| 20260505171818 | 16 | 0 | 1.6 | 9.7 | 0.00 | 3.61 | 0.00 | 87 | 1014.2 |
| 20260505171324 | 16 | 0 | 3.2 | 9.7 | 0.00 | 3.61 | 0.00 | 86 | 1014.3 |
| 20260505170818 | 16 | 0 | 3.2 | 8.0 | 0.00 | 3.61 | 0.00 | 86 | 1014.4 |
| 20260505170324 | 16 | 0 | 3.2 | 9.7 | 0.00 | 3.61 | 0.00 | 86 | 1014.4 |
| 20260505165818 | 16 | 0 | 3.2 | 9.7 | 0.00 | 3.61 | 0.00 | 85 | 1014.4 |
| 20260505165318 | 16 | 0 | 8.0 | 14.5 | 0.00 | 3.61 | 0.00 | 85 | 1014.4 |
| 20260505164818 | 16 | 0 | 1.6 | 12.9 | 0.00 | 3.61 | 0.00 | 84 | 1014.5 |
| 20260505164321 | 16 | 0 | 4.8 | 9.7 | 0.00 | 3.61 | 0.00 | 83 | 1014.5 |
| 20260505163818 | 16 | 0 | 4.8 | 12.9 | 0.00 | 3.61 | 0.00 | 83 | 1014.4 |
| 20260505163324 | 16 | 0 | 4.8 | 14.5 | 0.00 | 3.61 | 0.00 | 83 | 1014.3 |
| 20260505162818 | 16 | 0 | 8.0 | 9.7 | 0.00 | 3.61 | 0.00 | 82 | 1014.4 |
| 20260505162327 | 17 | 0 | 6.4 | 8.0 | 0.00 | 3.61 | 0.00 | 82 | 1014.3 |
| 20260505161824 | 17 | 0 | 3.2 | 6.4 | 0.00 | 3.61 | 0.00 | 81 | 1014.3 |
| 20260505161321 | 17 | 0 | 3.2 | 8.0 | 0.00 | 3.61 | 0.00 | 81 | 1014.3 |
| 20260505160821 | 17 | 0 | 1.6 | 4.8 | 0.00 | 3.61 | 0.00 | 82 | 1014.3 |
| 20260505160324 | 17 | 0 | 1.6 | 9.7 | 0.00 | 3.61 | 0.00 | 82 | 1014.3 |
| 20260505153321 | 16 | 0 | 4.8 | 12.9 | 0.00 | 3.61 | 0.00 | 84 | 1014.4 |
| 20260505152821 | 16 | 0 | 4.8 | 12.9 | 0.00 | 3.61 | 0.00 | 84 | 1014.4 |
| 20260505152318 | 16 | 0 | 4.8 | 9.7 | 0.00 | 3.61 | 0.00 | 84 | 1014.5 |
| 20260505151824 | 16 | 0 | 3.2 | 9.7 | 0.00 | 3.61 | 0.00 | 83 | 1014.7 |
| 20260505151324 | 16 | 0 | 4.8 | 8.0 | 0.00 | 3.61 | 0.00 | 83 | 1014.6 |
| 20260505150818 | 16 | 0 | 4.8 | 9.7 | 0.00 | 3.61 | 0.00 | 83 | 1014.4 |
| 20260505150318 | 16 | 0 | 1.6 | 14.5 | 0.00 | 3.61 | 0.00 | 82 | 1014.5 |
| 20260505140321 | 17 | 0 | 8.0 | 9.7 | 0.00 | 3.61 | 0.00 | 81 | 1014.4 |
| 20260505124821 | 17 | 0 | 3.2 | 4.8 | 0.00 | 3.61 | 0.00 | 79 | 1014.4 |
| 20260505124327 | 17 | 0 | 0.0 | 4.8 | 0.00 | 3.61 | 0.00 | 78 | 1014.4 |
| 20260505123821 | 17 | 0 | 0.0 | 3.2 | 0.00 | 3.61 | 0.00 | 80 | 1014.4 |
| 20260505123324 | 17 | 0 | 0.0 | 0.0 | 0.00 | 3.61 | 0.00 | 80 | 1014.4 |
| 20260505122818 | 17 | 0 | 0.0 | 1.6 | 0.00 | 3.61 | 0.00 | 79 | 1014.5 |
| 20260505122318 | 17 | 0 | 0.0 | 3.2 | 0.00 | 3.61 | 0.00 | 78 | 1014.5 |
| 20260505121818 | 17 | 0 | 3.2 | 6.4 | 0.00 | 3.61 | 0.00 | 78 | 1014.4 |
| 20260505121318 | 17 | 0 | 1.6 | 6.4 | 0.00 | 3.61 | 0.00 | 79 | 1014.4 |
| 20260505120821 | 17 | 0 | 0.0 | 4.8 | 0.00 | 3.61 | 0.00 | 79 | 1014.4 |
| 20260505120321 | 17 | 0 | 1.6 | 4.8 | 0.00 | 3.61 | 0.00 | 79 | 1014.4 |
| 20260505115818 | 17 | 0 | 0.0 | 4.8 | 0.00 | 3.61 | 0.00 | 79 | 1014.5 |
| 20260505115321 | 17 | 0 | 4.8 | 6.4 | 0.00 | 3.61 | 0.00 | 80 | 1014.5 |
| 20260505114818 | 17 | 0 | 3.2 | 6.4 | 0.00 | 3.61 | 0.00 | 79 | 1014.4 |
| 20260505114318 | 16 | 0 | 3.2 | 4.8 | 0.00 | 3.61 | 0.00 | 80 | 1014.4 |
| 20260505113818 | 16 | 0 | 0.0 | 6.4 | 0.00 | 3.61 | 0.00 | 80 | 1014.3 |
| 20260505113318 | 16 | 0 | 1.6 | 3.2 | 0.00 | 3.61 | 0.00 | 81 | 1014.5 |
| 20260505112827 | 16 | 0 | 0.0 | 8.0 | 0.00 | 3.61 | 0.00 | 81 | 1014.6 |
| 20260505112318 | 16 | 0 | 3.2 | 6.4 | 0.00 | 3.61 | 0.00 | 81 | 1014.5 |
| 20260505111830 | 15 | 0 | 3.2 | 9.7 | 0.00 | 3.61 | 0.00 | 81 | 1014.5 |
| 20260505111324 | 15 | 0 | 3.2 | 12.9 | 0.00 | 3.61 | 0.00 | 81 | 1014.5 |
| 20260505110817 | 15 | 0 | 3.2 | 8.0 | 0.00 | 3.61 | 0.00 | 81 | 1014.7 |
| 20260505110321 | 15 | 0 | 3.2 | 9.7 | 0.00 | 3.61 | 0.00 | 81 | 1014.6 |
| 20260505101827 | 13 | 0 | 6.4 | 19.3 | 0.03 | 3.61 | 0.00 | 87 | 1014.6 |
| 20260505101318 | 13 | 0 | 6.4 | 16.1 | 0.03 | 3.61 | 0.00 | 88 | 1014.4 |
| 20260505100818 | 13 | 0 | 6.4 | 20.9 | 0.03 | 3.61 | 0.00 | 88 | 1014.4 |
| 20260505100317 | 12 | 0 | 4.8 | 19.3 | 0.03 | 3.61 | 0.00 | 88 | 1014.7 |
| 20260505095827 | 12 | 0 | 9.7 | 17.7 | 0.03 | 3.61 | 0.00 | 89 | 1014.6 |
| 20260505095318 | 12 | 0 | 4.8 | 19.3 | 0.03 | 3.61 | 0.00 | 88 | 1014.5 |
| 20260505094818 | 12 | 0 | 4.8 | 24.1 | 0.03 | 3.61 | 0.00 | 88 | 1014.5 |
| 20260505094317 | 12 | 0 | 4.8 | 22.5 | 0.03 | 3.61 | 0.00 | 88 | 1014.7 |
| 20260505093818 | 12 | 0 | 9.7 | 27.4 | 0.00 | 3.58 | 0.00 | 87 | 1014.7 |
| 20260505093317 | 12 | 0 | 6.4 | 25.7 | 0.00 | 3.56 | 0.00 | 86 | 1014.8 |
| 20260505092818 | 12 | 0 | 8.0 | 22.5 | 0.00 | 3.56 | 0.00 | 86 | 1014.5 |
| 20260505092324 | 12 | 0 | 14.5 | 20.9 | 0.00 | 3.56 | 0.00 | 86 | 1014.5 |
| 20260505091821 | 12 | 0 | 4.8 | 16.1 | 0.00 | 3.56 | 0.00 | 86 | 1014.3 |
| 20260505091318 | 12 | 0 | 14.5 | 16.1 | 0.00 | 3.56 | 0.00 | 87 | 1014.3 |
| 20260505090820 | 13 | 0 | 9.7 | 17.7 | 0.00 | 3.56 | 0.00 | 87 | 1014.3 |
| 20260505090320 | 13 | 0 | 3.2 | 19.3 | 0.00 | 3.56 | 0.00 | 86 | 1014.4 |
| 20260505085818 | 13 | 0 | 6.4 | 19.3 | 0.00 | 3.56 | 0.00 | 85 | 1014.4 |
| 20260505085324 | 13 | 0 | 9.7 | 19.3 | 0.00 | 3.56 | 0.00 | 85 | 1014.4 |
| 20260505084817 | 13 | 0 | 4.8 | 16.1 | 0.00 | 3.56 | 0.00 | 84 | 1014.3 |
| 20260505084318 | 13 | 0 | 3.2 | 20.9 | 0.00 | 3.56 | 0.00 | 84 | 1014.2 |
| 20260505083820 | 13 | 0 | 6.4 | 16.1 | 0.00 | 3.56 | 0.00 | 84 | 1014.1 |
| 20260505083324 | 13 | 0 | 6.4 | 14.5 | 0.00 | 3.56 | 0.00 | 85 | 1013.9 |
| 20260505082817 | 13 | 0 | 6.4 | 17.7 | 0.00 | 3.56 | 0.00 | 85 | 1013.9 |
| 20260505082321 | 13 | 0 | 3.2 | 24.1 | 0.00 | 3.56 | 0.00 | 85 | 1014.0 |
| 20260505081818 | 13 | 0 | 12.9 | 17.7 | 0.00 | 3.56 | 0.00 | 84 | 1014.1 |
| 20260505081324 | 13 | 0 | 4.8 | 17.7 | 0.00 | 3.56 | 0.00 | 84 | 1014.1 |
| 20260505080824 | 13 | 0 | 3.2 | 9.7 | 0.00 | 3.56 | 0.00 | 83 | 1014.1 |
| 20260505080317 | 13 | 0 | 3.2 | 12.9 | 0.00 | 3.56 | 0.00 | 83 | 1014.0 |
| 20260505075818 | 13 | 0 | 9.7 | 12.9 | 0.00 | 3.56 | 0.00 | 83 | 1013.9 |
| 20260505075317 | 13 | 0 | 4.8 | 14.5 | 0.00 | 3.56 | 0.00 | 83 | 1013.8 |
| 20260505074817 | 13 | 0 | 6.4 | 16.1 | 0.00 | 3.56 | 0.00 | 84 | 1014.1 |
| 20260505074321 | 13 | 0 | 1.6 | 9.7 | 0.00 | 3.56 | 0.00 | 84 | 1014.1 |
| 20260505073818 | 13 | 0 | 3.2 | 14.5 | 0.00 | 3.56 | 0.00 | 85 | 1014.1 |
| 20260505073317 | 13 | 0 | 1.6 | 9.7 | 0.00 | 3.56 | 0.00 | 85 | 1014.3 |
| 20260505072818 | 13 | 0 | 3.2 | 8.0 | 0.00 | 3.56 | 0.00 | 85 | 1014.2 |
| 20260505072317 | 13 | 0 | 4.8 | 14.5 | 0.00 | 3.56 | 0.00 | 85 | 1014.2 |
| 20260505071818 | 13 | 0 | 6.4 | 19.3 | 0.03 | 3.56 | 0.00 | 85 | 1014.3 |
| 20260505071318 | 12 | 0 | 8.0 | 19.3 | 0.05 | 3.56 | 0.00 | 86 | 1014.2 |
| 20260505070826 | 12 | 0 | 6.4 | 19.3 | 0.08 | 3.56 | 0.00 | 86 | 1014.2 |
| 20260505070321 | 12 | 0 | 6.4 | 20.9 | 0.13 | 3.56 | 0.00 | 86 | 1014.1 |
| 20260505065821 | 12 | 0 | 4.8 | 17.7 | 0.18 | 3.56 | 0.00 | 86 | 1014.0 |
| 20260505065329 | 12 | 0 | 6.4 | 19.3 | 0.20 | 3.56 | 0.00 | 86 | 1014.0 |
| 20260505064820 | 12 | 0 | 4.8 | 16.1 | 0.30 | 3.56 | 0.00 | 86 | 1013.9 |
| 20260505064317 | 12 | 0 | 3.2 | 27.4 | 0.41 | 3.56 | 0.00 | 86 | 1013.8 |
| 20260505063817 | 12 | 0 | 8.0 | 43.5 | 0.53 | 3.56 | 0.00 | 86 | 1013.7 |
| 20260505063317 | 12 | 0 | 16.1 | 38.6 | 0.64 | 3.56 | 0.00 | 86 | 1013.6 |
| 20260505062817 | 12 | 0 | 22.5 | 40.2 | 0.69 | 3.56 | 0.00 | 87 | 1013.5 |
| 20260505062327 | 12 | 0 | 17.7 | 40.2 | 0.74 | 3.56 | 0.00 | 87 | 1013.5 |
| 20260505061818 | 12 | 0 | 4.8 | 40.2 | 0.84 | 3.53 | 0.00 | 88 | 1013.5 |
| 20260505061317 | 12 | 0 | 8.0 | 40.2 | 0.91 | 3.51 | 0.00 | 88 | 1013.4 |
| 20260505060823 | 12 | 0 | 19.3 | 37.0 | 0.94 | 3.48 | 0.00 | 87 | 1013.6 |
| 20260505060321 | 12 | 0 | 17.7 | 29.0 | 0.94 | 3.43 | 0.00 | 87 | 1013.4 |
| 20260505055827 | 12 | 0 | 6.4 | 22.5 | 0.94 | 3.38 | 0.00 | 87 | 1013.4 |
| 20260505055317 | 12 | 0 | 22.5 | 37.0 | 0.94 | 3.35 | 0.00 | 86 | 1013.3 |
| 20260505054817 | 12 | 0 | 9.7 | 32.2 | 0.91 | 3.25 | 0.00 | 86 | 1012.8 |
| 20260505054318 | 12 | 0 | 17.7 | 32.2 | 0.84 | 3.15 | 0.00 | 87 | 1012.8 |
| 20260505053820 | 12 | 0 | 8.0 | 37.0 | 0.79 | 3.02 | 0.00 | 88 | 1013.2 |
| 20260505053320 | 12 | 0 | 3.2 | 24.1 | 0.84 | 2.92 | 0.00 | 88 | 1014.0 |
| 20260505052818 | 12 | 0 | 14.5 | 30.6 | 0.84 | 2.84 | 0.00 | 88 | 1014.0 |
| 20260505052320 | 12 | 0 | 27.4 | 35.4 | 0.89 | 2.79 | 0.00 | 89 | 1013.8 |
| 20260505051821 | 12 | 0 | 9.7 | 24.1 | 0.91 | 2.69 | 0.00 | 89 | 1013.6 |
| 20260505051324 | 12 | 0 | 12.9 | 27.4 | 0.94 | 2.59 | 0.00 | 88 | 1013.8 |
| 20260505050823 | 12 | 0 | 20.9 | 37.0 | 0.94 | 2.51 | 0.00 | 88 | 1013.9 |
| 20260505050317 | 12 | 0 | 9.7 | 37.0 | 1.12 | 2.49 | 0.00 | 88 | 1013.8 |
| 20260505041317 | 12 | 0 | 6.4 | 16.1 | 0.94 | 1.65 | 0.00 | 89 | 1013.9 |
| 20260505040817 | 12 | 0 | 6.4 | 12.9 | 0.94 | 1.57 | 0.00 | 89 | 1013.6 |
| 20260505040321 | 12 | 0 | 4.8 | 12.9 | 0.79 | 1.37 | 0.00 | 89 | 1013.8 |
| 20260505035823 | 12 | 0 | 0.0 | 6.4 | 0.53 | 1.12 | 0.00 | 89 | 1014.0 |
| 20260505035320 | 12 | 0 | 1.6 | 14.5 | 0.53 | 1.09 | 0.00 | 89 | 1013.5 |
| 20260505034817 | 12 | 0 | 3.2 | 14.5 | 0.53 | 1.04 | 0.00 | 88 | 1013.5 |
| 20260505034321 | 12 | 0 | 3.2 | 14.5 | 0.48 | 0.99 | 0.00 | 88 | 1013.7 |
| 20260505033817 | 12 | 0 | 4.8 | 9.7 | 0.48 | 0.97 | 0.00 | 88 | 1013.8 |
| 20260505033317 | 12 | 0 | 4.8 | 8.0 | 0.51 | 0.94 | 0.00 | 88 | 1013.9 |
| 20260505032820 | 12 | 0 | 0.0 | 14.5 | 0.48 | 0.89 | 0.00 | 87 | 1014.1 |
| 20260505032317 | 13 | 0 | 9.7 | 14.5 | 0.46 | 0.84 | 0.00 | 87 | 1014.0 |
| 20260505031817 | 13 | 0 | 0.0 | 9.7 | 0.41 | 0.76 | 0.00 | 86 | 1014.2 |
| 20260505031323 | 13 | 0 | 4.8 | 8.0 | 0.36 | 0.71 | 0.00 | 86 | 1014.3 |
| 20260505030820 | 13 | 0 | 3.2 | 8.0 | 0.33 | 0.64 | 0.00 | 86 | 1014.5 |
| 20260505030324 | 13 | 0 | 3.2 | 6.4 | 0.28 | 0.56 | 0.00 | 85 | 1014.6 |
| 20260505025817 | 13 | 0 | 4.8 | 6.4 | 0.30 | 0.56 | 0.00 | 85 | 1014.5 |
| 20260505025317 | 13 | 0 | 1.6 | 9.7 | 0.30 | 0.56 | 0.00 | 85 | 1014.7 |
| 20260505024817 | 13 | 0 | 3.2 | 8.0 | 0.28 | 0.51 | 0.00 | 85 | 1014.8 |
| 20260505024320 | 13 | 0 | 3.2 | 12.9 | 0.28 | 0.48 | 0.00 | 85 | 1014.8 |
| 20260505023817 | 13 | 0 | 12.9 | 12.9 | 0.28 | 0.46 | 0.00 | 85 | 1014.8 |
| 20260505023317 | 13 | 0 | 4.8 | 4.8 | 0.28 | 0.43 | 0.00 | 85 | 1014.9 |
| 20260505022820 | 13 | 0 | 4.8 | 6.4 | 0.25 | 0.38 | 0.00 | 84 | 1015.1 |
| 20260505022320 | 13 | 0 | 0.0 | 0.0 | 0.25 | 0.36 | 0.00 | 85 | 1015.2 |
| 20260505021820 | 13 | 0 | 0.0 | 4.8 | 0.25 | 0.36 | 0.00 | 84 | 1015.2 |
| 20260505021321 | 13 | 0 | 4.8 | 4.8 | 0.25 | 0.33 | 0.00 | 83 | 1015.2 |
| 20260505020821 | 13 | 0 | 3.2 | 6.4 | 0.20 | 0.28 | 0.00 | 83 | 1015.2 |
| 20260505020317 | 13 | 0 | 1.6 | 4.8 | 0.20 | 0.28 | 0.00 | 84 | 1015.2 |
| 20260505015817 | 13 | 0 | 3.2 | 6.4 | 0.20 | 0.25 | 0.00 | 84 | 1015.2 |
| 20260505015320 | 13 | 0 | 1.6 | 4.8 | 0.20 | 0.23 | 0.00 | 84 | 1015.4 |
| 20260505014826 | 13 | 0 | 0.0 | 1.6 | 0.20 | 0.20 | 0.00 | 84 | 1015.5 |
| 20260505014318 | 13 | 0 | 0.0 | 3.2 | 0.18 | 0.18 | 0.00 | 83 | 1015.6 |
| 20260505013817 | 14 | 0 | 0.0 | 4.8 | 0.18 | 0.18 | 0.00 | 84 | 1015.6 |
| 20260505013326 | 14 | 0 | 1.6 | 3.2 | 0.15 | 0.15 | 0.00 | 83 | 1015.6 |
| 20260505012817 | 14 | 0 | 0.0 | 4.8 | 0.13 | 0.13 | 0.00 | 82 | 1015.7 |
| 20260505012317 | 14 | 0 | 4.8 | 6.4 | 0.10 | 0.10 | 0.00 | 82 | 1015.8 |
| 20260505011823 | 14 | 0 | 0.0 | 0.0 | 0.08 | 0.08 | 0.00 | 82 | 1015.7 |
| 20260505011323 | 15 | 0 | 0.0 | 1.6 | 0.08 | 0.08 | 0.00 | 81 | 1015.9 |
| 20260505010826 | 15 | 0 | 0.0 | 3.2 | 0.08 | 0.08 | 0.00 | 80 | 1016.0 |
| 20260505010317 | 15 | 0 | 0.0 | 3.2 | 0.05 | 0.05 | 0.00 | 80 | 1016.2 |
| 20260505005823 | 15 | 0 | 0.0 | 3.2 | 0.03 | 0.03 | 0.00 | 79 | 1016.2 |
| 20260505005317 | 15 | 0 | 1.6 | 4.8 | 0.00 | 0.00 | 0.00 | 78 | 1016.4 |
| 20260505004817 | 15 | 0 | 1.6 | 3.2 | 0.00 | 0.00 | 0.00 | 77 | 1016.5 |
| 20260505004317 | 15 | 0 | 1.6 | 3.2 | 0.00 | 0.00 | 0.00 | 76 | 1016.5 |
| 20260505003817 | 15 | 0 | 3.2 | 3.2 | 0.00 | 0.00 | 0.00 | 76 | 1016.6 |
| 20260505003323 | 15 | 0 | 0.0 | 3.2 | 0.00 | 0.00 | 0.00 | 76 | 1016.7 |